| time (UTC) | temp F | wind direction | speed MPH | gust MPH | rain 1hr in | rain 24hr in | rain mn in | humidity % | barometer mb |
| 20260509055008 | 51 | 178 | 1.0 | 4.0 | 0.00 | 0.00 | 0.00 | 49 | 1003.2 |
| 20260509054524 | 51 | 163 | 1.0 | 5.0 | 0.00 | 0.00 | 0.00 | 47 | 1003.3 |
| 20260509054009 | 51 | 255 | 2.0 | 5.0 | 0.00 | 0.00 | 0.00 | 46 | 1003.4 |
| 20260509053506 | 52 | 234 | 3.0 | 7.0 | 0.00 | 0.00 | 0.00 | 46 | 1003.5 |
| 20260509053022 | 52 | 247 | 3.0 | 7.0 | 0.00 | 0.00 | 0.00 | 48 | 1003.6 |
| 20260509052508 | 53 | 221 | 2.0 | 7.0 | 0.00 | 0.00 | 0.00 | 46 | 1003.5 |
| 20260509052008 | 53 | 265 | 1.0 | 3.0 | 0.00 | 0.00 | 0.00 | 41 | 1003.5 |
| 20260509051522 | 54 | 250 | 1.0 | 3.0 | 0.00 | 0.00 | 0.00 | 40 | 1003.3 |
| 20260509051007 | 54 | 282 | 1.0 | 3.0 | 0.00 | 0.00 | 0.00 | 39 | 1003.6 |
| 20260509050510 | 55 | 250 | 2.0 | 6.0 | 0.00 | 0.00 | 0.00 | 39 | 1003.7 |
| 20260509050018 | 55 | 254 | 1.0 | 6.0 | 0.00 | 0.00 | 0.00 | 39 | 1003.7 |
| 20260509045510 | 55 | 291 | 1.0 | 6.0 | 0.00 | 0.00 | 0.00 | 39 | 1003.8 |
| 20260509045010 | 56 | 291 | 2.0 | 6.0 | 0.00 | 0.00 | 0.00 | 39 | 1003.8 |
| 20260509044534 | 56 | 284 | 1.0 | 6.0 | 0.00 | 0.00 | 0.00 | 38 | 1003.7 |
| 20260509044008 | 56 | 271 | 3.0 | 6.0 | 0.00 | 0.00 | 0.00 | 38 | 1003.8 |
| 20260509043503 | 56 | 270 | 2.0 | 8.0 | 0.00 | 0.00 | 0.00 | 37 | 1003.8 |
| 20260509043029 | 57 | 265 | 2.0 | 8.0 | 0.00 | 0.00 | 0.00 | 36 | 1003.7 |
| 20260509042506 | 57 | 273 | 3.0 | 8.0 | 0.00 | 0.00 | 0.00 | 36 | 1003.8 |
| 20260509042008 | 57 | 304 | 2.0 | 8.0 | 0.00 | 0.00 | 0.00 | 35 | 1003.9 |
| 20260509041524 | 58 | 288 | 2.0 | 10.0 | 0.00 | 0.00 | 0.00 | 35 | 1003.9 |
| 20260509041007 | 58 | 282 | 3.0 | 10.0 | 0.00 | 0.00 | 0.00 | 34 | 1004.0 |
| 20260509040504 | 58 | 302 | 4.0 | 11.0 | 0.00 | 0.00 | 0.00 | 34 | 1004.0 |
| 20260509040026 | 58 | 280 | 4.0 | 12.0 | 0.00 | 0.00 | 0.00 | 34 | 1004.0 |
| 20260509035511 | 58 | 291 | 6.0 | 12.0 | 0.00 | 0.00 | 0.00 | 33 | 1004.0 |
| 20260509035008 | 59 | 303 | 6.0 | 11.0 | 0.00 | 0.00 | 0.00 | 33 | 1003.9 |
| 20260509034527 | 59 | 306 | 6.0 | 12.0 | 0.00 | 0.00 | 0.00 | 33 | 1003.9 |
| 20260509034011 | 59 | 293 | 4.0 | 14.0 | 0.00 | 0.00 | 0.00 | 33 | 1003.9 |
| 20260509033507 | 59 | 279 | 4.0 | 14.0 | 0.00 | 0.00 | 0.00 | 34 | 1003.9 |
| 20260509033020 | 60 | 303 | 5.0 | 12.0 | 0.00 | 0.00 | 0.00 | 32 | 1003.9 |
| 20260509032506 | 60 | 290 | 5.0 | 13.0 | 0.00 | 0.00 | 0.00 | 33 | 1003.7 |
| 20260509032009 | 60 | 325 | 5.0 | 16.0 | 0.00 | 0.00 | 0.00 | 32 | 1003.7 |
| 20260509031528 | 60 | 287 | 8.0 | 16.0 | 0.00 | 0.00 | 0.00 | 32 | 1003.6 |
| 20260509031007 | 61 | 279 | 7.0 | 19.0 | 0.00 | 0.00 | 0.00 | 33 | 1003.5 |
| 20260509030510 | 61 | 306 | 9.0 | 19.0 | 0.00 | 0.00 | 0.00 | 32 | 1003.5 |
| 20260509030025 | 61 | 292 | 5.0 | 16.0 | 0.00 | 0.00 | 0.00 | 32 | 1003.5 |
| 20260509025507 | 62 | 313 | 10.0 | 20.0 | 0.00 | 0.00 | 0.00 | 32 | 1003.5 |
| 20260509025010 | 62 | 309 | 8.0 | 20.0 | 0.00 | 0.00 | 0.00 | 32 | 1003.5 |
| 20260509024527 | 62 | 323 | 8.0 | 20.0 | 0.00 | 0.00 | 0.00 | 31 | 1003.4 |
| 20260509024005 | 62 | 300 | 10.0 | 21.0 | 0.00 | 0.00 | 0.00 | 31 | 1003.4 |
| 20260509023507 | 62 | 336 | 10.0 | 21.0 | 0.00 | 0.00 | 0.00 | 31 | 1003.3 |
| 20260509023023 | 62 | 325 | 10.0 | 21.0 | 0.00 | 0.00 | 0.00 | 32 | 1003.2 |
| 20260509022509 | 62 | 259 | 8.0 | 21.0 | 0.00 | 0.00 | 0.00 | 31 | 1003.2 |
| 20260509022008 | 62 | 284 | 8.0 | 19.0 | 0.00 | 0.00 | 0.00 | 31 | 1003.1 |
| 20260509021532 | 63 | 273 | 7.0 | 20.0 | 0.00 | 0.00 | 0.00 | 31 | 1003.0 |
| 20260509021009 | 63 | 315 | 9.0 | 20.0 | 0.00 | 0.00 | 0.00 | 30 | 1002.8 |
| 20260509020509 | 63 | 308 | 10.0 | 18.0 | 0.00 | 0.00 | 0.00 | 30 | 1002.9 |
| 20260509020022 | 63 | 279 | 10.0 | 19.0 | 0.00 | 0.00 | 0.00 | 30 | 1002.7 |
| 20260509015508 | 63 | 298 | 7.0 | 19.0 | 0.00 | 0.00 | 0.00 | 29 | 1002.6 |
| 20260509015010 | 63 | 254 | 10.0 | 17.0 | 0.00 | 0.00 | 0.00 | 29 | 1002.6 |
| 20260509014529 | 64 | 316 | 7.0 | 14.0 | 0.00 | 0.00 | 0.00 | 29 | 1002.5 |
| 20260509014006 | 64 | 245 | 7.0 | 15.0 | 0.00 | 0.00 | 0.00 | 28 | 1002.5 |
| 20260509013508 | 64 | 252 | 8.0 | 15.0 | 0.00 | 0.00 | 0.00 | 28 | 1002.4 |
| 20260509013022 | 64 | 250 | 5.0 | 13.0 | 0.00 | 0.00 | 0.00 | 28 | 1002.3 |
| 20260509012509 | 65 | 302 | 8.0 | 14.0 | 0.00 | 0.00 | 0.00 | 27 | 1002.3 |
| 20260509012007 | 65 | 298 | 7.0 | 17.0 | 0.00 | 0.00 | 0.00 | 27 | 1002.3 |
| 20260509011528 | 65 | 289 | 7.0 | 17.0 | 0.00 | 0.00 | 0.00 | 27 | 1002.2 |
| 20260509011011 | 66 | 239 | 8.0 | 15.0 | 0.00 | 0.00 | 0.00 | 27 | 1002.2 |
| 20260509010509 | 66 | 319 | 7.0 | 14.0 | 0.00 | 0.00 | 0.00 | 27 | 1002.1 |
| 20260509010035 | 66 | 309 | 4.0 | 15.0 | 0.00 | 0.00 | 0.00 | 27 | 1002.1 |
| 20260509005510 | 66 | 291 | 8.0 | 17.0 | 0.00 | 0.00 | 0.00 | 25 | 1002.0 |
| 20260509005005 | 67 | 247 | 9.0 | 20.0 | 0.00 | 0.00 | 0.00 | 26 | 1002.0 |
| 20260509004505 | 67 | 229 | 13.0 | 24.0 | 0.00 | 0.00 | 0.00 | 25 | 1002.0 |
| 20260509004004 | 67 | 255 | 12.0 | 24.0 | 0.00 | 0.00 | 0.00 | 25 | 1002.0 |
| 20260509003507 | 68 | 286 | 11.0 | 21.0 | 0.00 | 0.00 | 0.00 | 26 | 1001.9 |
| 20260509003023 | 68 | 241 | 12.0 | 21.0 | 0.00 | 0.00 | 0.00 | 25 | 1001.9 |
| 20260509002505 | 68 | 246 | 10.0 | 21.0 | 0.00 | 0.00 | 0.00 | 25 | 1001.9 |
| 20260509002002 | 69 | 277 | 9.0 | 20.0 | 0.00 | 0.00 | 0.00 | 25 | 1001.9 |
| 20260509001510 | 69 | 268 | 9.0 | 20.0 | 0.00 | 0.00 | 0.00 | 26 | 1001.9 |
| 20260509001003 | 69 | 255 | 8.0 | 21.0 | 0.00 | 0.00 | 0.00 | 26 | 1001.9 |
| 20260509000503 | 69 | 277 | 11.0 | 23.0 | 0.00 | 0.00 | 0.00 | 25 | 1001.9 |
| 20260509000016 | 69 | 315 | 12.0 | 23.0 | 0.00 | 0.00 | 0.00 | 26 | 1001.9 |
| 20260508235506 | 69 | 300 | 9.0 | 21.0 | 0.00 | 0.00 | 0.00 | 26 | 1001.9 |
| 20260508235004 | 70 | 314 | 5.0 | 27.0 | 0.00 | 0.00 | 0.00 | 26 | 1001.9 |
| 20260508234515 | 70 | 298 | 14.0 | 27.0 | 0.00 | 0.00 | 0.00 | 26 | 1001.9 |
| 20260508234008 | 70 | 263 | 11.0 | 18.0 | 0.00 | 0.00 | 0.00 | 26 | 1001.9 |
| 20260508233502 | 70 | 238 | 8.0 | 20.0 | 0.00 | 0.00 | 0.00 | 26 | 1001.9 |
| 20260508233012 | 70 | 261 | 9.0 | 21.0 | 0.00 | 0.00 | 0.00 | 27 | 1001.9 |
| 20260508232502 | 70 | 276 | 12.0 | 21.0 | 0.00 | 0.00 | 0.00 | 27 | 1001.9 |
| 20260508232005 | 70 | 288 | 12.0 | 20.0 | 0.00 | 0.00 | 0.00 | 27 | 1002.0 |
| 20260508231506 | 71 | 252 | 10.0 | 20.0 | 0.00 | 0.00 | 0.00 | 26 | 1002.0 |
| 20260508231004 | 71 | 234 | 12.0 | 30.0 | 0.00 | 0.00 | 0.00 | 25 | 1002.0 |
| 20260508230505 | 71 | 310 | 12.0 | 30.0 | 0.00 | 0.00 | 0.00 | 25 | 1002.0 |
| 20260508230022 | 72 | 248 | 15.0 | 28.0 | 0.00 | 0.00 | 0.00 | 25 | 1002.2 |
| 20260508225505 | 71 | 298 | 10.0 | 28.0 | 0.00 | 0.00 | 0.00 | 26 | 1002.0 |
| 20260508225009 | 71 | 242 | 15.0 | 28.0 | 0.00 | 0.00 | 0.00 | 25 | 1002.0 |
| 20260508224528 | 71 | 262 | 11.0 | 21.0 | 0.00 | 0.00 | 0.00 | 26 | 1001.9 |
| 20260508224002 | 72 | 287 | 12.0 | 20.0 | 0.00 | 0.00 | 0.00 | 24 | 1001.9 |
| 20260508223507 | 73 | 250 | 6.0 | 17.0 | 0.00 | 0.00 | 0.00 | 28 | 1001.9 |
| 20260508223017 | 72 | 277 | 8.0 | 21.0 | 0.00 | 0.00 | 0.00 | 29 | 1001.9 |
| 20260508222503 | 71 | 277 | 11.0 | 22.0 | 0.00 | 0.00 | 0.00 | 26 | 1001.9 |
| 20260508222003 | 71 | 246 | 14.0 | 22.0 | 0.00 | 0.00 | 0.00 | 27 | 1001.8 |
| 20260508221512 | 71 | 265 | 10.0 | 18.0 | 0.00 | 0.00 | 0.00 | 25 | 1001.9 |
| 20260508221008 | 71 | 265 | 7.0 | 18.0 | 0.00 | 0.00 | 0.00 | 28 | 1002.0 |
| 20260508220503 | 70 | 284 | 9.0 | 18.0 | 0.00 | 0.00 | 0.00 | 27 | 1002.0 |
| 20260508220020 | 70 | 331 | 7.0 | 15.0 | 0.00 | 0.00 | 0.00 | 26 | 1002.1 |
| 20260508215508 | 70 | 250 | 9.0 | 18.0 | 0.00 | 0.00 | 0.00 | 25 | 1002.1 |
| 20260508215009 | 70 | 231 | 11.0 | 18.0 | 0.00 | 0.00 | 0.00 | 26 | 1002.2 |
| 20260508214531 | 70 | 271 | 10.0 | 18.0 | 0.00 | 0.00 | 0.00 | 27 | 1002.3 |
| 20260508214005 | 71 | 265 | 8.0 | 15.0 | 0.00 | 0.00 | 0.00 | 25 | 1002.3 |
| 20260508213508 | 70 | 277 | 9.0 | 17.0 | 0.00 | 0.00 | 0.00 | 26 | 1002.4 |
| 20260508213033 | 69 | 240 | 7.0 | 17.0 | 0.00 | 0.00 | 0.00 | 27 | 1002.4 |
| 20260508212511 | 69 | 317 | 7.0 | 17.0 | 0.00 | 0.00 | 0.00 | 26 | 1002.5 |
| 20260508212014 | 69 | 237 | 10.0 | 17.0 | 0.00 | 0.00 | 0.00 | 26 | 1002.5 |
| 20260508211524 | 69 | 241 | 8.0 | 17.0 | 0.00 | 0.00 | 0.00 | 26 | 1002.6 |
| 20260508211005 | 69 | 239 | 11.0 | 17.0 | 0.00 | 0.00 | 0.00 | 24 | 1002.7 |
| 20260508210506 | 70 | 232 | 4.0 | 12.0 | 0.00 | 0.00 | 0.00 | 28 | 1002.8 |
| 20260508210023 | 70 | 257 | 6.0 | 17.0 | 0.00 | 0.00 | 0.00 | 25 | 1002.9 |
| 20260508205509 | 69 | 311 | 6.0 | 17.0 | 0.00 | 0.00 | 0.00 | 27 | 1002.9 |
| 20260508205009 | 69 | 310 | 8.0 | 15.0 | 0.00 | 0.00 | 0.00 | 24 | 1003.0 |
| 20260508204531 | 70 | 311 | 9.0 | 15.0 | 0.00 | 0.00 | 0.00 | 25 | 1003.0 |
| 20260508204013 | 71 | 304 | 8.0 | 16.0 | 0.00 | 0.00 | 0.00 | 24 | 1003.1 |
| 20260508203509 | 70 | 289 | 10.0 | 22.0 | 0.00 | 0.00 | 0.00 | 25 | 1003.2 |
| 20260508203028 | 69 | 232 | 11.0 | 22.0 | 0.00 | 0.00 | 0.00 | 27 | 1003.3 |
| 20260508202508 | 69 | 271 | 11.0 | 17.0 | 0.00 | 0.00 | 0.00 | 24 | 1003.4 |
| 20260508202012 | 69 | 238 | 9.0 | 15.0 | 0.00 | 0.00 | 0.00 | 27 | 1003.4 |
| 20260508201529 | 69 | 280 | 6.0 | 15.0 | 0.00 | 0.00 | 0.00 | 25 | 1003.5 |
| 20260508201006 | 69 | 306 | 8.0 | 15.0 | 0.00 | 0.00 | 0.00 | 24 | 1003.7 |
| 20260508200506 | 69 | 288 | 9.0 | 17.0 | 0.00 | 0.00 | 0.00 | 24 | 1003.7 |
| 20260508200022 | 69 | 312 | 9.0 | 17.0 | 0.00 | 0.00 | 0.00 | 25 | 1003.8 |
| 20260508195509 | 70 | 263 | 9.0 | 16.0 | 0.00 | 0.00 | 0.00 | 24 | 1003.9 |
| 20260508195010 | 71 | 269 | 11.0 | 20.0 | 0.00 | 0.00 | 0.00 | 24 | 1003.9 |
| 20260508194528 | 70 | 312 | 7.0 | 20.0 | 0.00 | 0.00 | 0.00 | 27 | 1004.0 |
| 20260508194009 | 69 | 275 | 8.0 | 16.0 | 0.00 | 0.00 | 0.00 | 29 | 1004.1 |
| 20260508193507 | 68 | 265 | 8.0 | 16.0 | 0.00 | 0.00 | 0.00 | 27 | 1004.2 |
| 20260508193026 | 68 | 311 | 9.0 | 15.0 | 0.00 | 0.00 | 0.00 | 28 | 1004.5 |
| 20260508192511 | 68 | 286 | 6.0 | 16.0 | 0.00 | 0.00 | 0.00 | 27 | 1004.5 |
| 20260508192009 | 68 | 307 | 10.0 | 16.0 | 0.00 | 0.00 | 0.00 | 26 | 1004.5 |
| 20260508191528 | 68 | 262 | 9.0 | 15.0 | 0.00 | 0.00 | 0.00 | 26 | 1004.6 |
| 20260508191007 | 68 | 242 | 9.0 | 16.0 | 0.00 | 0.00 | 0.00 | 27 | 1004.5 |
| 20260508190506 | 68 | 346 | 10.0 | 19.0 | 0.00 | 0.00 | 0.00 | 26 | 1004.5 |
| 20260508190027 | 68 | 259 | 12.0 | 24.0 | 0.00 | 0.00 | 0.00 | 24 | 1004.6 |
| 20260508185511 | 69 | 262 | 11.0 | 23.0 | 0.00 | 0.00 | 0.00 | 25 | 1004.6 |
| 20260508185012 | 68 | 196 | 6.0 | 18.0 | 0.00 | 0.00 | 0.00 | 25 | 1004.5 |
| 20260508184510 | 69 | 291 | 7.0 | 25.0 | 0.00 | 0.00 | 0.00 | 26 | 1004.6 |
| 20260508184006 | 69 | 292 | 8.0 | 25.0 | 0.00 | 0.00 | 0.00 | 22 | 1004.7 |
| 20260508183502 | 69 | 315 | 15.0 | 25.0 | 0.00 | 0.00 | 0.00 | 24 | 1004.7 |
| 20260508183015 | 69 | 296 | 11.0 | 17.0 | 0.00 | 0.00 | 0.00 | 26 | 1004.9 |
| 20260508182507 | 70 | 261 | 9.0 | 17.0 | 0.00 | 0.00 | 0.00 | 27 | 1004.8 |
| 20260508182006 | 69 | 257 | 8.0 | 26.0 | 0.00 | 0.00 | 0.00 | 28 | 1004.9 |
| 20260508181511 | 70 | 250 | 11.0 | 26.0 | 0.00 | 0.00 | 0.00 | 28 | 1005.1 |
| 20260508181005 | 69 | 309 | 8.0 | 15.0 | 0.00 | 0.00 | 0.00 | 25 | 1005.1 |
| 20260508180511 | 69 | 267 | 6.0 | 14.0 | 0.00 | 0.00 | 0.00 | 28 | 1005.1 |
| 20260508180017 | 69 | 294 | 5.0 | 19.0 | 0.00 | 0.00 | 0.00 | 26 | 1005.2 |
| 20260508175505 | 68 | 293 | 8.0 | 19.0 | 0.00 | 0.00 | 0.00 | 31 | 1005.3 |
| 20260508175003 | 68 | 277 | 9.0 | 20.0 | 0.00 | 0.00 | 0.00 | 26 | 1005.4 |
| 20260508174508 | 69 | 306 | 12.0 | 20.0 | 0.00 | 0.00 | 0.00 | 25 | 1005.5 |
| 20260508174008 | 68 | 277 | 13.0 | 19.0 | 0.00 | 0.00 | 0.00 | 26 | 1005.6 |
| 20260508173506 | 68 | 236 | 13.0 | 19.0 | 0.00 | 0.00 | 0.00 | 24 | 1005.8 |
| 20260508173016 | 68 | 240 | 7.0 | 17.0 | 0.00 | 0.00 | 0.00 | 26 | 1005.8 |
| 20260508172504 | 68 | 334 | 8.0 | 21.0 | 0.00 | 0.00 | 0.00 | 27 | 1005.9 |
| 20260508172006 | 68 | 254 | 6.0 | 21.0 | 0.00 | 0.00 | 0.00 | 28 | 1006.1 |
| 20260508171519 | 67 | 261 | 8.0 | 13.0 | 0.00 | 0.00 | 0.00 | 28 | 1006.3 |
| 20260508171010 | 67 | 268 | 6.0 | 15.0 | 0.00 | 0.00 | 0.00 | 33 | 1006.4 |
| 20260508170504 | 66 | 241 | 9.0 | 17.0 | 0.00 | 0.00 | 0.00 | 28 | 1006.5 |
| 20260508170008 | 66 | 247 | 9.0 | 24.0 | 0.00 | 0.00 | 0.00 | 29 | 1006.6 |
| 20260508165503 | 66 | 293 | 12.0 | 24.0 | 0.00 | 0.00 | 0.00 | 27 | 1006.7 |
| 20260508165004 | 66 | 282 | 12.0 | 23.0 | 0.00 | 0.00 | 0.00 | 28 | 1006.7 |
| 20260508164513 | 65 | 242 | 8.0 | 17.0 | 0.00 | 0.00 | 0.00 | 28 | 1006.7 |
| 20260508164010 | 65 | 293 | 6.0 | 22.0 | 0.00 | 0.00 | 0.00 | 27 | 1006.8 |
| 20260508163506 | 65 | 297 | 12.0 | 22.0 | 0.00 | 0.00 | 0.00 | 28 | 1006.8 |
| 20260508163011 | 65 | 287 | 12.0 | 24.0 | 0.00 | 0.00 | 0.00 | 27 | 1006.8 |
| 20260508162507 | 64 | 254 | 10.0 | 24.0 | 0.00 | 0.00 | 0.00 | 35 | 1006.9 |
| 20260508162008 | 62 | 307 | 2.0 | 11.0 | 0.00 | 0.00 | 0.00 | 33 | 1006.9 |
| 20260508161506 | 62 | 316 | 5.0 | 11.0 | 0.00 | 0.00 | 0.00 | 32 | 1007.1 |
| 20260508161005 | 62 | 259 | 3.0 | 10.0 | 0.00 | 0.00 | 0.00 | 37 | 1007.1 |
| 20260508160506 | 61 | 221 | 3.0 | 14.0 | 0.00 | 0.00 | 0.00 | 37 | 1007.2 |
| 20260508160015 | 61 | 245 | 8.0 | 14.0 | 0.00 | 0.00 | 0.00 | 34 | 1007.3 |
| 20260508155504 | 62 | 207 | 8.0 | 15.0 | 0.00 | 0.00 | 0.00 | 34 | 1007.2 |
| 20260508155004 | 62 | 257 | 5.0 | 16.0 | 0.00 | 0.00 | 0.00 | 34 | 1007.3 |
| 20260508154505 | 61 | 257 | 3.0 | 16.0 | 0.00 | 0.00 | 0.00 | 37 | 1007.5 |
| 20260508154006 | 60 | 296 | 6.0 | 13.0 | 0.00 | 0.00 | 0.00 | 38 | 1007.6 |
| 20260508153506 | 59 | 240 | 8.0 | 15.0 | 0.00 | 0.00 | 0.00 | 36 | 1007.6 |
| 20260508153023 | 59 | 225 | 9.0 | 15.0 | 0.00 | 0.00 | 0.00 | 35 | 1007.8 |
| 20260508152505 | 59 | 238 | 9.0 | 15.0 | 0.00 | 0.00 | 0.00 | 36 | 1007.8 |
| 20260508152003 | 59 | 213 | 7.0 | 13.0 | 0.00 | 0.00 | 0.00 | 36 | 1007.7 |
| 20260508151509 | 58 | 254 | 6.0 | 15.0 | 0.00 | 0.00 | 0.00 | 37 | 1007.7 |
| 20260508151002 | 58 | 240 | 7.0 | 17.0 | 0.00 | 0.00 | 0.00 | 37 | 1007.8 |
| 20260508150502 | 58 | 257 | 8.0 | 17.0 | 0.00 | 0.00 | 0.00 | 36 | 1007.9 |
| 20260508150016 | 57 | 219 | 6.0 | 14.0 | 0.00 | 0.00 | 0.00 | 37 | 1008.0 |
| 20260508145504 | 57 | 219 | 8.0 | 14.0 | 0.00 | 0.00 | 0.00 | 36 | 1007.9 |
| 20260508145002 | 57 | 225 | 5.0 | 13.0 | 0.00 | 0.00 | 0.00 | 40 | 1007.8 |
| 20260508144511 | 57 | 175 | 6.0 | 13.0 | 0.00 | 0.00 | 0.00 | 40 | 1007.9 |
| 20260508144006 | 56 | 202 | 6.0 | 15.0 | 0.00 | 0.00 | 0.00 | 39 | 1007.9 |
| 20260508143505 | 56 | 259 | 5.0 | 15.0 | 0.00 | 0.00 | 0.00 | 40 | 1007.9 |
| 20260508143007 | 56 | 223 | 8.0 | 15.0 | 0.00 | 0.00 | 0.00 | 40 | 1007.9 |
| 20260508142503 | 56 | 270 | 6.0 | 12.0 | 0.00 | 0.00 | 0.00 | 40 | 1008.0 |
| 20260508142003 | 55 | 250 | 5.0 | 14.0 | 0.00 | 0.00 | 0.00 | 43 | 1008.0 |
| 20260508141506 | 55 | 250 | 7.0 | 14.0 | 0.00 | 0.00 | 0.00 | 39 | 1008.0 |
| 20260508141006 | 55 | 210 | 5.0 | 11.0 | 0.00 | 0.00 | 0.00 | 43 | 1008.1 |
| 20260508140502 | 54 | 193 | 4.0 | 12.0 | 0.00 | 0.00 | 0.00 | 42 | 1008.1 |
| 20260508140017 | 54 | 259 | 6.0 | 12.0 | 0.00 | 0.00 | 0.00 | 43 | 1008.1 |
| 20260508135507 | 53 | 235 | 3.0 | 10.0 | 0.00 | 0.00 | 0.00 | 43 | 1008.1 |
| 20260508135006 | 53 | 214 | 3.0 | 15.0 | 0.00 | 0.00 | 0.00 | 43 | 1008.2 |
| 20260508134529 | 52 | 189 | 5.0 | 15.0 | 0.00 | 0.00 | 0.00 | 43 | 1008.2 |
| 20260508134004 | 52 | 198 | 5.0 | 13.0 | 0.00 | 0.00 | 0.00 | 44 | 1008.3 |
| 20260508133504 | 52 | 238 | 6.0 | 13.0 | 0.00 | 0.00 | 0.00 | 44 | 1008.4 |
| 20260508133020 | 51 | 265 | 6.0 | 12.0 | 0.00 | 0.00 | 0.00 | 45 | 1008.5 |
| 20260508132504 | 51 | 250 | 5.0 | 11.0 | 0.00 | 0.00 | 0.00 | 44 | 1008.4 |
| 20260508132003 | 50 | 219 | 5.0 | 11.0 | 0.00 | 0.00 | 0.00 | 44 | 1008.4 |
| 20260508131508 | 50 | 242 | 3.0 | 9.0 | 0.00 | 0.00 | 0.00 | 45 | 1008.5 |
| 20260508131004 | 50 | 282 | 4.0 | 13.0 | 0.00 | 0.00 | 0.00 | 44 | 1008.4 |
| 20260508130503 | 50 | 221 | 5.0 | 13.0 | 0.00 | 0.00 | 0.00 | 44 | 1008.6 |
| 20260508130010 | 49 | 187 | 6.0 | 12.0 | 0.00 | 0.00 | 0.00 | 46 | 1008.5 |
| 20260508125508 | 48 | 198 | 6.0 | 11.0 | 0.00 | 0.00 | 0.00 | 45 | 1008.5 |
| 20260508125007 | 48 | 227 | 5.0 | 11.0 | 0.00 | 0.00 | 0.00 | 47 | 1008.5 |
| 20260508124510 | 47 | 240 | 4.0 | 12.0 | 0.00 | 0.00 | 0.00 | 47 | 1008.6 |
| 20260508124007 | 47 | 188 | 3.0 | 12.0 | 0.00 | 0.00 | 0.00 | 47 | 1008.6 |
| 20260508123506 | 46 | 207 | 4.0 | 9.0 | 0.00 | 0.00 | 0.00 | 48 | 1008.6 |
| 20260508123006 | 46 | 221 | 4.0 | 9.0 | 0.00 | 0.00 | 0.00 | 49 | 1008.5 |
| 20260508122506 | 45 | 230 | 4.0 | 9.0 | 0.00 | 0.00 | 0.00 | 50 | 1008.5 |
| 20260508122004 | 45 | 221 | 5.0 | 9.0 | 0.00 | 0.00 | 0.00 | 50 | 1008.6 |
| 20260508121535 | 44 | 93 | 2.0 | 7.0 | 0.00 | 0.00 | 0.00 | 51 | 1008.5 |
| 20260508121004 | 44 | 201 | 3.0 | 9.0 | 0.00 | 0.00 | 0.00 | 51 | 1008.5 |
| 20260508120507 | 44 | 207 | 4.0 | 9.0 | 0.00 | 0.00 | 0.00 | 51 | 1008.5 |
| 20260508120018 | 43 | 219 | 3.0 | 8.0 | 0.00 | 0.00 | 0.00 | 52 | 1008.4 |
| 20260508115508 | 43 | 178 | 4.0 | 8.0 | 0.00 | 0.00 | 0.00 | 52 | 1008.4 |
| 20260508115005 | 43 | 217 | 4.0 | 8.0 | 0.00 | 0.00 | 0.00 | 52 | 1008.5 |
| 20260508114519 | 42 | 178 | 3.0 | 7.0 | 0.00 | 0.00 | 0.00 | 52 | 1008.3 |
| 20260508114007 | 42 | 213 | 4.0 | 7.0 | 0.00 | 0.00 | 0.00 | 53 | 1008.3 |
| 20260508113503 | 42 | 212 | 2.0 | 7.0 | 0.00 | 0.00 | 0.00 | 54 | 1008.4 |
| 20260508113016 | 41 | 198 | 3.0 | 7.0 | 0.00 | 0.00 | 0.00 | 54 | 1008.4 |
| 20260508112504 | 41 | 167 | 2.0 | 6.0 | 0.00 | 0.00 | 0.00 | 56 | 1008.5 |
| 20260508112004 | 41 | 165 | 2.0 | 5.0 | 0.00 | 0.00 | 0.00 | 56 | 1008.5 |
| 20260508111512 | 41 | 250 | 2.0 | 5.0 | 0.00 | 0.00 | 0.00 | 56 | 1008.3 |
| 20260508111004 | 41 | 259 | 1.0 | 5.0 | 0.00 | 0.00 | 0.00 | 57 | 1008.3 |
| 20260508110507 | 41 | 178 | 2.0 | 4.0 | 0.00 | 0.00 | 0.00 | 57 | 1008.3 |
| 20260508110010 | 41 | 201 | 2.0 | 4.0 | 0.00 | 0.00 | 0.00 | 57 | 1008.3 |
| 20260508105509 | 41 | 209 | 2.0 | 4.0 | 0.00 | 0.00 | 0.00 | 56 | 1008.3 |
| 20260508105009 | 41 | 229 | 1.0 | 4.0 | 0.00 | 0.00 | 0.00 | 56 | 1008.3 |
| 20260508104525 | 42 | 178 | 1.0 | 5.0 | 0.00 | 0.00 | 0.00 | 56 | 1008.3 |
| 20260508104007 | 42 | 238 | 2.0 | 5.0 | 0.00 | 0.00 | 0.00 | 56 | 1008.3 |
| 20260508103504 | 42 | 212 | 1.0 | 4.0 | 0.00 | 0.00 | 0.00 | 55 | 1008.3 |
| 20260508103025 | 42 | 221 | 2.0 | 7.0 | 0.00 | 0.00 | 0.00 | 54 | 1008.3 |
| 20260508102504 | 42 | 200 | 2.0 | 7.0 | 0.00 | 0.00 | 0.00 | 53 | 1008.3 |
| 20260508102005 | 42 | 196 | 2.0 | 6.0 | 0.00 | 0.00 | 0.00 | 52 | 1008.3 |
| 20260508101513 | 42 | 200 | 2.0 | 6.0 | 0.00 | 0.00 | 0.00 | 52 | 1008.4 |
| 20260508101011 | 42 | 205 | 2.0 | 5.0 | 0.00 | 0.00 | 0.00 | 52 | 1008.4 |
| 20260508100503 | 42 | 232 | 3.0 | 5.0 | 0.00 | 0.00 | 0.00 | 51 | 1008.5 |
| 20260508100018 | 42 | 205 | 3.0 | 5.0 | 0.00 | 0.00 | 0.00 | 51 | 1008.4 |
| 20260508095506 | 42 | 221 | 2.0 | 5.0 | 0.00 | 0.00 | 0.00 | 51 | 1008.4 |
| 20260508095011 | 42 | 229 | 3.0 | 5.0 | 0.00 | 0.00 | 0.00 | 50 | 1008.4 |
| 20260508094516 | 42 | 205 | 2.0 | 6.0 | 0.00 | 0.00 | 0.00 | 50 | 1008.5 |
| 20260508094007 | 42 | 219 | 2.0 | 6.0 | 0.00 | 0.00 | 0.00 | 50 | 1008.5 |
| 20260508093509 | 42 | 205 | 3.0 | 6.0 | 0.00 | 0.00 | 0.00 | 50 | 1008.5 |
| 20260508093020 | 42 | 218 | 3.0 | 7.0 | 0.00 | 0.00 | 0.00 | 51 | 1008.5 |
| 20260508092502 | 42 | 238 | 3.0 | 7.0 | 0.00 | 0.00 | 0.00 | 51 | 1008.5 |
| 20260508092006 | 42 | 265 | 3.0 | 6.0 | 0.00 | 0.00 | 0.00 | 51 | 1008.5 |
| 20260508091515 | 42 | 254 | 2.0 | 6.0 | 0.00 | 0.00 | 0.00 | 52 | 1008.5 |
| 20260508091005 | 42 | 232 | 2.0 | 6.0 | 0.00 | 0.00 | 0.00 | 53 | 1008.5 |
| 20260508090509 | 42 | 221 | 2.0 | 6.0 | 0.00 | 0.00 | 0.00 | 53 | 1008.5 |
| 20260508090024 | 42 | 225 | 2.0 | 5.0 | 0.00 | 0.00 | 0.00 | 53 | 1008.5 |
| 20260508085511 | 42 | 234 | 2.0 | 5.0 | 0.00 | 0.00 | 0.00 | 53 | 1008.5 |
| 20260508085007 | 42 | 202 | 2.0 | 5.0 | 0.00 | 0.00 | 0.00 | 52 | 1008.5 |
| 20260508084525 | 42 | 234 | 2.0 | 7.0 | 0.00 | 0.00 | 0.00 | 52 | 1008.6 |
| 20260508084008 | 42 | 226 | 2.0 | 7.0 | 0.00 | 0.00 | 0.00 | 53 | 1008.5 |
| 20260508083506 | 42 | 232 | 2.0 | 6.0 | 0.00 | 0.00 | 0.00 | 53 | 1008.5 |
| 20260508083104 | 42 | 232 | 2.0 | 6.0 | 0.00 | 0.00 | 0.00 | 53 | 1008.6 |
| 20260508082503 | 42 | 236 | 2.0 | 5.0 | 0.00 | 0.00 | 0.00 | 54 | 1008.6 |
| 20260508082009 | 42 | 216 | 1.0 | 5.0 | 0.00 | 0.00 | 0.00 | 54 | 1008.6 |
| 20260508081517 | 42 | 236 | 2.0 | 5.0 | 0.00 | 0.00 | 0.00 | 54 | 1008.7 |
| 20260508081005 | 42 | 284 | 1.0 | 4.0 | 0.00 | 0.00 | 0.00 | 54 | 1008.7 |
| 20260508080505 | 42 | 218 | 2.0 | 4.0 | 0.00 | 0.00 | 0.00 | 54 | 1008.7 |
| 20260508080016 | 42 | 219 | 2.0 | 4.0 | 0.00 | 0.00 | 0.00 | 54 | 1008.8 |
| 20260508075509 | 42 | 249 | 2.0 | 4.0 | 0.00 | 0.00 | 0.00 | 54 | 1008.8 |
| 20260508075010 | 42 | 229 | 2.0 | 4.0 | 0.00 | 0.00 | 0.00 | 55 | 1008.8 |
| 20260508074531 | 42 | 209 | 2.0 | 4.0 | 0.00 | 0.00 | 0.00 | 55 | 1008.8 |
| 20260508074010 | 42 | 254 | 2.0 | 4.0 | 0.00 | 0.00 | 0.00 | 54 | 1008.8 |
| 20260508073507 | 42 | 257 | 2.0 | 5.0 | 0.00 | 0.00 | 0.00 | 54 | 1008.9 |
| 20260508073027 | 42 | 250 | 2.0 | 5.0 | 0.00 | 0.00 | 0.00 | 54 | 1008.9 |
| 20260508072505 | 42 | 217 | 3.0 | 5.0 | 0.00 | 0.00 | 0.00 | 55 | 1009.0 |
| 20260508072007 | 42 | 236 | 2.0 | 5.0 | 0.00 | 0.00 | 0.00 | 55 | 1009.0 |
| 20260508071525 | 42 | 225 | 2.0 | 6.0 | 0.00 | 0.00 | 0.00 | 56 | 1009.0 |
| 20260508071006 | 42 | 211 | 3.0 | 6.0 | 0.00 | 0.00 | 0.00 | 54 | 1009.0 |
| 20260508070504 | 42 | 242 | 2.0 | 5.0 | 0.00 | 0.00 | 0.00 | 55 | 1009.1 |
| 20260508070024 | 42 | 221 | 2.0 | 5.0 | 0.00 | 0.00 | 0.00 | 55 | 1009.2 |
| 20260508065508 | 42 | 247 | 2.0 | 5.0 | 0.00 | 0.00 | 0.00 | 54 | 1009.2 |
| 20260508065008 | 42 | 212 | 3.0 | 5.0 | 0.00 | 0.00 | 0.00 | 55 | 1009.2 |
| 20260508064539 | 42 | 219 | 2.0 | 4.0 | 0.00 | 0.00 | 0.00 | 55 | 1009.2 |
| 20260508064011 | 42 | 236 | 2.0 | 5.0 | 0.00 | 0.00 | 0.00 | 56 | 1009.3 |
| 20260508063509 | 42 | 226 | 2.0 | 5.0 | 0.00 | 0.00 | 0.00 | 56 | 1009.3 |
| 20260508063018 | 42 | 227 | 2.0 | 5.0 | 0.00 | 0.00 | 0.00 | 57 | 1009.3 |
| 20260508062508 | 42 | 202 | 2.0 | 7.0 | 0.00 | 0.00 | 0.00 | 57 | 1009.4 |
| 20260508062009 | 42 | 203 | 3.0 | 7.0 | 0.00 | 0.00 | 0.00 | 58 | 1009.4 |
| 20260508061524 | 42 | 223 | 3.0 | 6.0 | 0.00 | 0.00 | 0.00 | 58 | 1009.5 |
| 20260508061008 | 42 | 219 | 3.0 | 5.0 | 0.00 | 0.00 | 0.00 | 59 | 1009.6 |
| 20260508060509 | 42 | 232 | 3.0 | 4.0 | 0.00 | 0.00 | 0.00 | 62 | 1009.6 |
| 20260508060024 | 42 | 225 | 2.0 | 4.0 | 0.00 | 0.00 | 0.00 | 62 | 1009.6 |
| 20260508055507 | 42 | 210 | 2.0 | 5.0 | 0.00 | 0.00 | 0.00 | 60 | 1009.5 |